Regional Weather Roundup
Issued by NWS

Home | Current Version | Previous Version | Graphics & Text | Print | Product List | Glossary On
Versions: 1 2 3 4 5 6 7 8 9 10 11 12 13 14 15 16 17 18 19 20 21 22 23 24 25 26 27 28 29 30 31 32 33 34 35 36 37 38 39 40 41 42 43 44 45 46 47 48 49 50
000
ASUS45 KABQ 131310
RWRNM
WEATHER ROUNDUP FOR NEW MEXICO
NATIONAL WEATHER SERVICE ALBUQUERQUE NM
700 AM MDT SUN JUL 13 2014

NOTE: "FAIR" MEANS FEW OR NO CLOUDS BELOW 12,000 FEET AGL WITH NO
       SIGNIFICANT WEATHER OR OBSTRUCTIONS TO VISION.

      THIS PRODUCT IS RELEASED AS TWO VERSIONS.  ONE VERSION NEAR
      THE TOP OF THE HOUR CONTAINING PRELIMINARY DATA FROM ALBUQUERQUE
      AND OTHER STATIONS.  A FINAL VERSION WITH ADDITIONAL DATA IS
      ISSUED ABOUT 10 MINUTES AFTER THE HOUR.

NMZ501-503-504-510>518-131400-
NORTHWEST PLATEAU/NORTHCENTRAL MOUNTAINS

CITY           SKY/WX    TMP DP  RH WIND       PRES   REMARKS
FARMINGTON     CLEAR     66  50  56 E7        30.28R
LOS ALAMOS     MOSUNNY   64  51  61 CALM      30.44R
SANTA FE       MOSUNNY   63  50  62 N7        30.37R
TAOS             N/A    N/A N/A N/A MISG        N/A
ANGEL FIRE     CLOUDY    52  51  93 CALM      30.54S

$$
NMZ402-403-502-505>509-131400-
WESTCENTRAL MOUNTAINS/SOUTHWEST MOUNTAINS

CITY           SKY/WX    TMP DP  RH WIND       PRES   REMARKS
GALLUP         MOCLDY    58  55  90 CALM      30.34R
GRANTS         PTCLDY    60  55  84 NW3       30.37R
SILVER CITY    PTCLDY    63  55  77 CALM      30.27R

$$
NMZ407-409-411-412-131400-
SOUTHERN DESERTS

CITY           SKY/WX    TMP DP  RH WIND       PRES   REMARKS
LORDSBURG      FAIR      72  59  64 SE5       30.15S
DEMING         PTCLDY    68  57  68 E13       30.18R
LAS CRUCES     CLEAR     69  57  65 SE3       30.21R
HOLLOMAN AFB   PTCLDY    67  58  72 NW2       30.19R
ALAMOGORDO     CLEAR     68  59  73 CALM      30.21R
T OR C         PTCLDY    70  58  65 N3        30.23R

$$
NMZ519>523-131400-
CENTRAL VALLEYS/CENTRAL HIGHLANDS

CITY           SKY/WX    TMP DP  RH WIND       PRES   REMARKS
ALBUQUERQUE    MOCLDY    72  53  51 E14       30.29R
DOUBLE EAGLE   MOCLDY    64  54  68 W3        30.33R
MORIARTY ARPT  FAIR      60  53  77 NW6       30.37S
CLINES CORNERS PTSUNNY   64  51  62 NE12      30.40S
BELEN          FAIR      65  59  81 CALM      30.28R
SOCORRO        FAIR      71  55  57 S6        30.25R

$$
NMZ524>526-539-540-131400-
SOUTHCENTRAL MOUNTAINS

CITY           SKY/WX    TMP DP  RH WIND       PRES   REMARKS
RUIDOSO        SUNNY     59  54  82 CALM      30.40R

$$
NMZ527>531-131400-
NORTHEAST HIGHLANDS/NORTHEAST PLAINS

CITY           SKY/WX    TMP DP  RH WIND       PRES   REMARKS
LAS VEGAS      PTSUNNY   56  48  74 NE7       30.43R
RATON          LGT RAIN  61  57  87 N6        30.39R
CLAYTON        NOT AVBL

$$
NMZ532>537-131400-
EASTCENTRAL PLAINS

CITY           SKY/WX    TMP DP  RH WIND       PRES   REMARKS
TUCUMCARI      CLOUDY    74  57  55 NE8       30.25R
CANNON AFB     PTSUNNY   69  62  80 NE9       30.27R
CLOVIS AIRPORT NOT AVBL

$$
NMZ028-029-538-131400-
SOUTHEAST PLAINS

CITY           SKY/WX    TMP DP  RH WIND       PRES   REMARKS
ROSWELL        SUNNY     69  61  75 S5        30.19R
ARTESIA        SUNNY     68  59  73 SE5       30.20R
CARLSBAD       SUNNY     71  61  70 CALM      30.17R
HOBBS          SUNNY     68  59  73 E6        30.22R


$$


USA.gov is the U.S. government's official web portal to all federal, state and local government web resources and services.